Location: Marne
(34.0056°N, 117.9064°W)
Time: 03:01:59
(UTC+00:00)

DELTA 2 R/B (1) - Pass Details

Date: 18 January 2020
Orbit: 791 x 802 km, 39.6° (Epoch: 16 February)

Event Time Altitude Azimuth Distance (km) Brightness Sun altitude
Rises 02:35:17 0° 254° (WSW) 3,287 8.5 -18.1°
Reaches altitude 10° 02:37:47 10° 256° (WSW) 2,360 7.3 -18.6°
Maximum altitude 02:43:21 73° 341° (NNW) 835 3.6 -19.7°
Enters shadow 02:45:32 38° 57° (ENE) 1,208 4.0 -20.2°
